Location: *
(49.3500°N, 12.6000°E)
Time: 19:56:57
(UTC+00:00)

STARLINK-59 - Pass Details

Date: 18 October 2019
Orbit: 548 x 551 km, 53.0° (Epoch: 11 November)

Event Time Altitude Azimuth Distance (km) Brightness Sun altitude
Rises 17:40:53 0° 266° (W) 2,715 9.0 -14.8°
Reaches altitude 10° 17:43:09 10° 270° (W) 1,823 7.7 -15.2°
Maximum altitude 17:47:14 56° 350° (N) 660 4.0 -15.9°
Enters shadow 17:49:20 26° 58° (ENE) 1,103 4.7 -16.2°
